Location: Unspecified
(0.0000°N, 0.0000°E)
Time: 02:19:28
(UTC+02:00)

Cosmos 2263 Rocket - Visible Passes

Search period start: 30 May 2015 00:00
Search period end: 09 June 2015 00:00
Orbit: 825 x 847 km, 71.0° (Epoch: 28 May)

Date Brightness Start Highest point End Pass type
(mag) Time Alt. Az. Time Alt. Az. Time Alt. Az.
01 Jun 4.3 21:36:09 10° NE 21:36:30 11° NE 21:36:30 11° NE visible
01 Jun 4.9 23:17:45 10° NW 23:18:15 12° NW 23:18:15 12° NW visible
02 Jun 4.2 21:20:02 10° NE 21:20:52 12° NE 21:20:52 12° NE visible
02 Jun 4.5 23:00:59 10° NW 23:02:36 19° NW 23:02:36 19° NW visible
03 Jun 4.1 21:04:07 10° NE 21:05:17 11° ENE 21:05:17 11° ENE visible
03 Jun 3.9 22:44:14 10° NNW 22:47:02 28° NW 22:47:02 28° NW visible
04 Jun 3.2 22:27:29 10° NNW 22:31:32 42° WNW 22:31:32 42° WNW visible
05 Jun 2.6 22:10:46 10° NNW 22:16:05 58° W 22:16:05 58° W visible
06 Jun 2.4 21:54:04 10° NNW 21:59:37 65° WSW 22:00:41 53° SSW visible
07 Jun 2.3 21:37:23 10° NNW 21:42:58 73° WSW 21:45:21 36° S visible
08 Jun 2.2 21:20:43 10° NNW 21:26:19 82° WSW 21:30:04 22° S visible
